owner,sensor,date,latitude,longitude,vertical_datum,mass_concentration_of_oxygen_in_sea_water,qcFlag 
DISL,ioos:station:DISL:DISL:1,2017-04-01T00:00:00Z,30.2513,-88.0778,2.073,8.56,1111122 
DISL,ioos:station:DISL:DISL:1,2017-04-01T00:30:00Z,30.2513,-88.0778,2.052,8.09,1111122 
DISL,ioos:station:DISL:DISL:1,2017-04-01T01:00:00Z,30.2513,-88.0778,2.036,8.68,1111122 
DISL,ioos:station:DISL:DISL:1,2017-04-01T01:30:00Z,30.2513,-88.0778,2.022,9.49,1111122 
DISL,ioos:station:DISL:DISL:1,2017-04-01T02:00:00Z,30.2513,-88.0778,1.999,9.07,1111122 
DISL,ioos:station:DISL:DISL:1,2017-04-01T02:30:00Z,30.2513,-88.0778,1.979,8.52,1111122 
DISL,ioos:station:DISL:DISL:1,2017-04-01T03:00:00Z,30.2513,-88.0778,1.972,8.45,1111122 
DISL,ioos:station:DISL:DISL:1,2017-04-01T03:30:00Z,30.2513,-88.0778,1.963,8.93,1111122 
DISL,ioos:station:DISL:DISL:1,2017-04-01T04:00:00Z,30.2513,-88.0778,1.95,8.8,1111122 
DISL,ioos:station:DISL:DISL:1,2017-04-01T04:30:00Z,30.2513,-88.0778,1.927,8.34,1111122 
DISL,ioos:station:DISL:DISL:1,2017-04-01T05:30:00Z,30.2513,-88.0778,1.912,7.14,1111122 
DISL,ioos:station:DISL:DISL:1,2017-04-01T06:00:00Z,30.2513,-88.0778,1.899,8.12,1111122 
DISL,ioos:station:DISL:DISL:1,2017-04-01T06:30:00Z,30.2513,-88.0778,1.909,8.32,1111122 
DISL,ioos:station:DISL:DISL:1,2017-04-01T07:00:00Z,30.2513,-88.0778,1.92,8.13,1111122 
DISL,ioos:station:DISL:DISL:1,2017-04-01T07:30:00Z,30.2513,-88.0778,1.927,6.74,1111122 
DISL,ioos:station:DISL:DISL:1,2017-04-01T08:00:00Z,30.2513,-88.0778,1.927,7.61,1111122 
DISL,ioos:station:DISL:DISL:1,2017-04-01T08:30:00Z,30.2513,-88.0778,1.945,7.64,1111122 
DISL,ioos:station:DISL:DISL:1,2017-04-01T09:00:00Z,30.2513,-88.0778,1.972,7.48,1111122 
DISL,ioos:station:DISL:DISL:1,2017-04-01T09:30:00Z,30.2513,-88.0778,1.978,7.71,1111122 
DISL,ioos:station:DISL:DISL:1,2017-04-01T10:00:00Z,30.2513,-88.0778,1.955,7.33,1111122 
DISL,ioos:station:DISL:DISL:1,2017-04-01T10:30:00Z,30.2513,-88.0778,2.011,7.71,1111122 
DISL,ioos:station:DISL:DISL:1,2017-04-01T11:00:00Z,30.2513,-88.0778,2.036,7.89,1111122 
DISL,ioos:station:DISL:DISL:1,2017-04-01T11:30:00Z,30.2513,-88.0778,2.052,7.85,1111122 
DISL,ioos:station:DISL:DISL:1,2017-04-01T12:00:00Z,30.2513,-88.0778,2.082,7.26,1111122 
DISL,ioos:station:DISL:DISL:1,2017-04-01T12:30:00Z,30.2513,-88.0778,2.103,6.91,1111122 
DISL,ioos:station:DISL:DISL:1,2017-04-01T13:00:00Z,30.2513,-88.0778,2.127,7.43,1111122 
DISL,ioos:station:DISL:DISL:1,2017-04-01T13:30:00Z,30.2513,-88.0778,2.142,7.43,1111122 
DISL,ioos:station:DISL:DISL:1,2017-04-01T14:00:00Z,30.2513,-88.0778,2.161,7.31,1111122 
DISL,ioos:station:DISL:DISL:1,2017-04-01T14:30:00Z,30.2513,-88.0778,2.196,7.25,1111122 
DISL,ioos:station:DISL:DISL:1,2017-04-01T15:00:00Z,30.2513,-88.0778,2.21,6.88,1111122 
DISL,ioos:station:DISL:DISL:1,2017-04-01T15:30:00Z,30.2513,-88.0778,2.239,7.29,1111122 
DISL,ioos:station:DISL:DISL:1,2017-04-01T16:00:00Z,30.2513,-88.0778,2.255,7.56,1111122 
DISL,ioos:station:DISL:DISL:1,2017-04-01T16:30:00Z,30.2513,-88.0778,2.264,7.6,1111122 
DISL,ioos:station:DISL:DISL:1,2017-04-01T17:00:00Z,30.2513,-88.0778,2.264,7.53,1111122 
DISL,ioos:station:DISL:DISL:1,2017-04-01T17:30:00Z,30.2513,-88.0778,2.288,6.95,1111122 
DISL,ioos:station:DISL:DISL:1,2017-04-01T18:00:00Z,30.2513,-88.0778,2.27,7.71,1111122 
DISL,ioos:station:DISL:DISL:1,2017-04-01T18:30:00Z,30.2513,-88.0778,2.282,7.94,1111122 
DISL,ioos:station:DISL:DISL:1,2017-04-01T19:00:00Z,30.2513,-88.0778,2.28,7.99,1111122 
DISL,ioos:station:DISL:DISL:1,2017-04-01T19:30:00Z,30.2513,-88.0778,2.264,7.88,1111122 
DISL,ioos:station:DISL:DISL:1,2017-04-01T20:00:00Z,30.2513,-88.0778,2.258,7.47,1111122 
DISL,ioos:station:DISL:DISL:1,2017-04-01T20:30:00Z,30.2513,-88.0778,2.231,8.02,1111122 
DISL,ioos:station:DISL:DISL:1,2017-04-01T21:00:00Z,30.2513,-88.0778,2.221,8.21,1111122 
DISL,ioos:station:DISL:DISL:1,2017-04-01T21:30:00Z,30.2513,-88.0778,2.214,8.32,1111122 
DISL,ioos:station:DISL:DISL:1,2017-04-01T22:00:00Z,30.2513,-88.0778,2.179,7.71,1111122 
DISL,ioos:station:DISL:DISL:1,2017-04-01T22:30:00Z,30.2513,-88.0778,2.161,10.62,1111122 
DISL,ioos:station:DISL:DISL:1,2017-04-01T23:00:00Z,30.2513,-88.0778,2.126,9.11,1111122 
DISL,ioos:station:DISL:DISL:1,2017-04-01T23:30:00Z,30.2513,-88.0778,2.105,9.76,1111122 
DISL,ioos:station:DISL:DISL:1,2017-04-02T00:00:00Z,30.2513,-88.0778,2.066,9.97,1111122 
DISL,ioos:station:DISL:DISL:1,2017-04-02T00:30:00Z,30.2513,-88.0778,2.044,9.86,1111122 
DISL,ioos:station:DISL:DISL:1,2017-04-02T01:00:00Z,30.2513,-88.0778,2.016,10.5,1111122 
DISL,ioos:station:DISL:DISL:1,2017-04-02T01:30:00Z,30.2513,-88.0778,2.006,9.56,1111122 
DISL,ioos:station:DISL:DISL:1,2017-04-02T02:00:00Z,30.2513,-88.0778,1.981,8.78,1111122 
DISL,ioos:station:DISL:DISL:1,2017-04-02T02:30:00Z,30.2513,-88.0778,1.965,8.18,1111122 
DISL,ioos:station:DISL:DISL:1,2017-04-02T03:00:00Z,30.2513,-88.0778,1.948,8.62,1111122 
DISL,ioos:station:DISL:DISL:1,2017-04-02T03:30:00Z,30.2513,-88.0778,1.92,8.53,1111122 
DISL,ioos:station:DISL:DISL:1,2017-04-02T04:00:00Z,30.2513,-88.0778,1.904,8.4,1111122 
DISL,ioos:station:DISL:DISL:1,2017-04-02T04:30:00Z,30.2513,-88.0778,1.893,8.31,1111122 
DISL,ioos:station:DISL:DISL:1,2017-04-02T05:30:00Z,30.2513,-88.0778,1.85,8.34,1111122 
DISL,ioos:station:DISL:DISL:1,2017-04-02T06:00:00Z,30.2513,-88.0778,1.846,8.51,1111122 
DISL,ioos:station:DISL:DISL:1,2017-04-02T06:30:00Z,30.2513,-88.0778,1.836,8.43,1111122 
DISL,ioos:station:DISL:DISL:1,2017-04-02T07:00:00Z,30.2513,-88.0778,1.827,7.05,1111122 
DISL,ioos:station:DISL:DISL:1,2017-04-02T07:30:00Z,30.2513,-88.0778,1.834,8.2,1111122 
DISL,ioos:station:DISL:DISL:1,2017-04-02T08:00:00Z,30.2513,-88.0778,1.849,8.07,1111122 
DISL,ioos:station:DISL:DISL:1,2017-04-02T08:30:00Z,30.2513,-88.0778,1.847,8.02,1111122 
DISL,ioos:station:DISL:DISL:1,2017-04-02T09:00:00Z,30.2513,-88.0778,1.856,7.7,1111122 
DISL,ioos:station:DISL:DISL:1,2017-04-02T09:30:00Z,30.2513,-88.0778,1.871,7.33,1111122 
DISL,ioos:station:DISL:DISL:1,2017-04-02T10:00:00Z,30.2513,-88.0778,1.886,7.35,1111122 
DISL,ioos:station:DISL:DISL:1,2017-04-02T10:30:00Z,30.2513,-88.0778,1.906,7.83,1111122 
DISL,ioos:station:DISL:DISL:1,2017-04-02T11:00:00Z,30.2513,-88.0778,1.925,7.67,1111122 
DISL,ioos:station:DISL:DISL:1,2017-04-02T11:30:00Z,30.2513,-88.0778,1.961,7.59,1111122 
DISL,ioos:station:DISL:DISL:1,2017-04-02T12:00:00Z,30.2513,-88.0778,1.976,6.51,1111122 
DISL,ioos:station:DISL:DISL:1,2017-04-02T12:30:00Z,30.2513,-88.0778,2.018,7.66,1111122 
DISL,ioos:station:DISL:DISL:1,2017-04-02T13:00:00Z,30.2513,-88.0778,2.045,7.9,1111122 
DISL,ioos:station:DISL:DISL:1,2017-04-02T13:30:00Z,30.2513,-88.0778,2.069,7.84,1111122 
DISL,ioos:station:DISL:DISL:1,2017-04-02T14:00:00Z,30.2513,-88.0778,2.092,7.22,1111122 
DISL,ioos:station:DISL:DISL:1,2017-04-02T14:30:00Z,30.2513,-88.0778,2.109,7.05,1111122 
DISL,ioos:station:DISL:DISL:1,2017-04-02T15:00:00Z,30.2513,-88.0778,2.123,6.59,1111122 
DISL,ioos:station:DISL:DISL:1,2017-04-02T15:30:00Z,30.2513,-88.0778,2.177,7.21,1111122 
DISL,ioos:station:DISL:DISL:1,2017-04-02T16:00:00Z,30.2513,-88.0778,2.191,7.23,1111122 
DISL,ioos:station:DISL:DISL:1,2017-04-02T16:30:00Z,30.2513,-88.0778,2.225,7.02,1111122 
DISL,ioos:station:DISL:DISL:1,2017-04-02T17:00:00Z,30.2513,-88.0778,2.218,6.14,1111122 
DISL,ioos:station:DISL:DISL:1,2017-04-02T17:30:00Z,30.2513,-88.0778,2.244,7.12,1111122 
DISL,ioos:station:DISL:DISL:1,2017-04-02T18:00:00Z,30.2513,-88.0778,2.239,7.37,1111122 
DISL,ioos:station:DISL:DISL:1,2017-04-02T18:30:00Z,30.2513,-88.0778,2.283,7.42,1111122 
DISL,ioos:station:DISL:DISL:1,2017-04-02T19:00:00Z,30.2513,-88.0778,2.268,7.54,1111122 
DISL,ioos:station:DISL:DISL:1,2017-04-02T19:30:00Z,30.2513,-88.0778,2.283,7.45,1111122 
DISL,ioos:station:DISL:DISL:1,2017-04-02T20:00:00Z,30.2513,-88.0778,2.309,7.57,1111122 
DISL,ioos:station:DISL:DISL:1,2017-04-02T20:30:00Z,30.2513,-88.0778,2.297,7.79,1111122 
DISL,ioos:station:DISL:DISL:1,2017-04-02T21:00:00Z,30.2513,-88.0778,2.308,7.77,1111122 
DISL,ioos:station:DISL:DISL:1,2017-04-02T21:30:00Z,30.2513,-88.0778,2.298,7.61,1111122 
DISL,ioos:station:DISL:DISL:1,2017-04-02T22:00:00Z,30.2513,-88.0778,2.343,7.06,1111122 
DISL,ioos:station:DISL:DISL:1,2017-04-02T22:30:00Z,30.2513,-88.0778,2.233,7.81,1111122 
DISL,ioos:station:DISL:DISL:1,2017-04-02T23:00:00Z,30.2513,-88.0778,2.275,7.9,1111122 
DISL,ioos:station:DISL:DISL:1,2017-04-02T23:30:00Z,30.2513,-88.0778,2.236,7.84,1111122 
DISL,ioos:station:DISL:DISL:1,2017-04-03T00:00:00Z,30.2513,-88.0778,2.227,7.33,1111122 
DISL,ioos:station:DISL:DISL:1,2017-04-03T00:30:00Z,30.2513,-88.0778,2.214,7.57,1111122 
DISL,ioos:station:DISL:DISL:1,2017-04-03T01:00:00Z,30.2513,-88.0778,2.177,7.38,1111122 
DISL,ioos:station:DISL:DISL:1,2017-04-03T01:30:00Z,30.2513,-88.0778,2.147,7.33,1111122 
DISL,ioos:station:DISL:DISL:1,2017-04-03T02:00:00Z,30.2513,-88.0778,2.126,6.14,1111122 
DISL,ioos:station:DISL:DISL:1,2017-04-03T02:30:00Z,30.2513,-88.0778,2.105,6.97,1111122 
DISL,ioos:station:DISL:DISL:1,2017-04-03T03:00:00Z,30.2513,-88.0778,2.082,6.98,1111122 
DISL,ioos:station:DISL:DISL:1,2017-04-03T03:30:00Z,30.2513,-88.0778,2.068,6.83,1111122 
DISL,ioos:station:DISL:DISL:1,2017-04-03T04:00:00Z,30.2513,-88.0778,2.056,6.18,1111122 
DISL,ioos:station:DISL:DISL:1,2017-04-03T04:30:00Z,30.2513,-88.0778,2.042,5.74,1111122 
DISL,ioos:station:DISL:DISL:1,2017-04-03T05:30:00Z,30.2513,-88.0778,2.027,6.0,1111122 
DISL,ioos:station:DISL:DISL:1,2017-04-03T06:00:00Z,30.2513,-88.0778,2.004,5.84,1111122 
DISL,ioos:station:DISL:DISL:1,2017-04-03T06:30:00Z,30.2513,-88.0778,2.016,5.22,1111122 
DISL,ioos:station:DISL:DISL:1,2017-04-03T07:00:00Z,30.2513,-88.0778,2.016,6.19,1111122 
DISL,ioos:station:DISL:DISL:1,2017-04-03T07:30:00Z,30.2513,-88.0778,2.008,6.41,1111122 
DISL,ioos:station:DISL:DISL:1,2017-04-03T08:00:00Z,30.2513,-88.0778,2.014,6.47,1111122 
DISL,ioos:station:DISL:DISL:1,2017-04-03T08:30:00Z,30.2513,-88.0778,2.018,6.3,1111122 
DISL,ioos:station:DISL:DISL:1,2017-04-03T09:00:00Z,30.2513,-88.0778,2.051,5.63,1111122 
DISL,ioos:station:DISL:DISL:1,2017-04-03T09:30:00Z,30.2513,-88.0778,2.057,6.51,1111122 
DISL,ioos:station:DISL:DISL:1,2017-04-03T10:00:00Z,30.2513,-88.0778,2.052,6.72,1111122 
DISL,ioos:station:DISL:DISL:1,2017-04-03T10:30:00Z,30.2513,-88.0778,2.093,6.66,1111122 
DISL,ioos:station:DISL:DISL:1,2017-04-03T11:00:00Z,30.2513,-88.0778,2.103,5.76,1111122 
DISL,ioos:station:DISL:DISL:1,2017-04-03T11:30:00Z,30.2513,-88.0778,2.121,6.58,1111122 
DISL,ioos:station:DISL:DISL:1,2017-04-03T12:00:00Z,30.2513,-88.0778,2.162,6.54,1111122 
DISL,ioos:station:DISL:DISL:1,2017-04-03T12:30:00Z,30.2513,-88.0778,2.189,6.62,1111122 
DISL,ioos:station:DISL:DISL:1,2017-04-03T13:00:00Z,30.2513,-88.0778,2.205,6.22,1111122 
DISL,ioos:station:DISL:DISL:1,2017-04-03T13:30:00Z,30.2513,-88.0778,2.252,5.55,1111122 
DISL,ioos:station:DISL:DISL:1,2017-04-03T14:00:00Z,30.2513,-88.0778,2.321,6.58,1111122 
DISL,ioos:station:DISL:DISL:1,2017-04-03T14:30:00Z,30.2513,-88.0778,2.588,7.11,1111122 
DISL,ioos:station:DISL:DISL:1,2017-04-03T15:00:00Z,30.2513,-88.0778,2.458,7.43,1111122 
DISL,ioos:station:DISL:DISL:1,2017-04-03T15:30:00Z,30.2513,-88.0778,2.498,6.43,1111122 
DISL,ioos:station:DISL:DISL:1,2017-04-03T16:00:00Z,30.2513,-88.0778,2.356,7.1,1111122 
DISL,ioos:station:DISL:DISL:1,2017-04-03T16:30:00Z,30.2513,-88.0778,2.248,6.95,1111122 
DISL,ioos:station:DISL:DISL:1,2017-04-03T17:00:00Z,30.2513,-88.0778,2.29,6.95,1111122 
DISL,ioos:station:DISL:DISL:1,2017-04-03T17:30:00Z,30.2513,-88.0778,2.204,7.01,1111122 
DISL,ioos:station:DISL:DISL:1,2017-04-03T18:00:00Z,30.2513,-88.0778,2.191,6.84,1111122 
DISL,ioos:station:DISL:DISL:1,2017-04-03T18:30:00Z,30.2513,-88.0778,2.219,7.24,1111122 
DISL,ioos:station:DISL:DISL:1,2017-04-03T19:00:00Z,30.2513,-88.0778,2.262,7.1,1111122 
DISL,ioos:station:DISL:DISL:1,2017-04-03T19:30:00Z,30.2513,-88.0778,2.262,6.28,1111122 
DISL,ioos:station:DISL:DISL:1,2017-04-03T20:00:00Z,30.2513,-88.0778,2.28,6.97,1111122 
DISL,ioos:station:DISL:DISL:1,2017-04-03T20:30:00Z,30.2513,-88.0778,2.297,7.02,1111122 
DISL,ioos:station:DISL:DISL:1,2017-04-03T21:00:00Z,30.2513,-88.0778,2.305,6.95,1111122 
DISL,ioos:station:DISL:DISL:1,2017-04-03T21:30:00Z,30.2513,-88.0778,2.294,7.17,1111122 
DISL,ioos:station:DISL:DISL:1,2017-04-03T22:00:00Z,30.2513,-88.0778,2.311,7.05,1111122 
DISL,ioos:station:DISL:DISL:1,2017-04-03T22:30:00Z,30.2513,-88.0778,2.306,7.64,1111122 
DISL,ioos:station:DISL:DISL:1,2017-04-03T23:00:00Z,30.2513,-88.0778,2.3,8.1,1111122 
DISL,ioos:station:DISL:DISL:1,2017-04-03T23:30:00Z,30.2513,-88.0778,2.3,7.83,1111122 
DISL,ioos:station:DISL:DISL:1,2017-04-04T00:00:00Z,30.2513,-88.0778,2.336,6.07,1111122 
DISL,ioos:station:DISL:DISL:1,2017-04-04T00:30:00Z,30.2513,-88.0778,2.326,7.48,1111122 
DISL,ioos:station:DISL:DISL:1,2017-04-04T01:00:00Z,30.2513,-88.0778,2.286,7.45,1111122 
DISL,ioos:station:DISL:DISL:1,2017-04-04T01:30:00Z,30.2513,-88.0778,2.272,7.84,1111122 
DISL,ioos:station:DISL:DISL:1,2017-04-04T02:00:00Z,30.2513,-88.0778,2.247,8.02,1111122 
DISL,ioos:station:DISL:DISL:1,2017-04-04T02:30:00Z,30.2513,-88.0778,2.234,7.58,1111122 
DISL,ioos:station:DISL:DISL:1,2017-04-04T03:00:00Z,30.2513,-88.0778,2.226,7.43,1111122 
DISL,ioos:station:DISL:DISL:1,2017-04-04T03:30:00Z,30.2513,-88.0778,2.17,7.49,1111122 
DISL,ioos:station:DISL:DISL:1,2017-04-04T04:00:00Z,30.2513,-88.0778,2.146,7.41,1111122 
DISL,ioos:station:DISL:DISL:1,2017-04-04T04:30:00Z,30.2513,-88.0778,2.115,6.82,1111122 
DISL,ioos:station:DISL:DISL:1,2017-04-04T05:30:00Z,30.2513,-88.0778,2.117,7.09,1111122 
DISL,ioos:station:DISL:DISL:1,2017-04-04T06:00:00Z,30.2513,-88.0778,2.068,7.17,1111122 
DISL,ioos:station:DISL:DISL:1,2017-04-04T06:30:00Z,30.2513,-88.0778,2.048,7.29,1111122 
DISL,ioos:station:DISL:DISL:1,2017-04-04T07:00:00Z,30.2513,-88.0778,2.052,7.4,1111122 
DISL,ioos:station:DISL:DISL:1,2017-04-04T07:30:00Z,30.2513,-88.0778,2.016,6.87,1111122 
DISL,ioos:station:DISL:DISL:1,2017-04-04T08:00:00Z,30.2513,-88.0778,2.023,7.14,1111122 
DISL,ioos:station:DISL:DISL:1,2017-04-04T08:30:00Z,30.2513,-88.0778,2.015,7.44,1111122 
DISL,ioos:station:DISL:DISL:1,2017-04-04T09:00:00Z,30.2513,-88.0778,2.017,7.64,1111122 
DISL,ioos:station:DISL:DISL:1,2017-04-04T09:30:00Z,30.2513,-88.0778,2.004,7.63,1111122 
DISL,ioos:station:DISL:DISL:1,2017-04-04T10:00:00Z,30.2513,-88.0778,1.995,7.08,1111122 
DISL,ioos:station:DISL:DISL:1,2017-04-04T10:30:00Z,30.2513,-88.0778,2.005,6.12,1111122 
DISL,ioos:station:DISL:DISL:1,2017-04-04T11:00:00Z,30.2513,-88.0778,1.996,7.15,1111122 
DISL,ioos:station:DISL:DISL:1,2017-04-04T11:30:00Z,30.2513,-88.0778,2.012,7.09,1111122 
DISL,ioos:station:DISL:DISL:1,2017-04-04T12:00:00Z,30.2513,-88.0778,2.013,7.18,1111122 
DISL,ioos:station:DISL:DISL:1,2017-04-04T12:30:00Z,30.2513,-88.0778,2.04,7.0,1111122 
DISL,ioos:station:DISL:DISL:1,2017-04-04T13:00:00Z,30.2513,-88.0778,2.043,7.09,1111122 
DISL,ioos:station:DISL:DISL:1,2017-04-04T13:30:00Z,30.2513,-88.0778,2.078,5.77,1111122 
DISL,ioos:station:DISL:DISL:1,2017-04-04T14:30:00Z,30.2513,-88.0778,2.113,6.17,1111122 
DISL,ioos:station:DISL:DISL:1,2017-04-04T15:00:00Z,30.2513,-88.0778,2.148,6.5,1111122 
DISL,ioos:station:DISL:DISL:1,2017-04-04T15:30:00Z,30.2513,-88.0778,2.153,6.69,1111122 
DISL,ioos:station:DISL:DISL:1,2017-04-04T16:00:00Z,30.2513,-88.0778,2.168,5.97,1111122 
DISL,ioos:station:DISL:DISL:1,2017-04-04T16:30:00Z,30.2513,-88.0778,2.201,7.13,1111122 
DISL,ioos:station:DISL:DISL:1,2017-04-04T17:00:00Z,30.2513,-88.0778,2.213,7.54,1111122 
DISL,ioos:station:DISL:DISL:1,2017-04-04T17:30:00Z,30.2513,-88.0778,2.228,7.5,1111122 
DISL,ioos:station:DISL:DISL:1,2017-04-04T18:00:00Z,30.2513,-88.0778,2.258,7.04,1111122 
DISL,ioos:station:DISL:DISL:1,2017-04-04T18:30:00Z,30.2513,-88.0778,2.259,6.37,1111122 
DISL,ioos:station:DISL:DISL:1,2017-04-04T19:00:00Z,30.2513,-88.0778,2.285,5.96,1111122 
DISL,ioos:station:DISL:DISL:1,2017-04-04T19:30:00Z,30.2513,-88.0778,2.281,6.9,1111122 
DISL,ioos:station:DISL:DISL:1,2017-04-04T20:00:00Z,30.2513,-88.0778,2.29,6.82,1111122 
DISL,ioos:station:DISL:DISL:1,2017-04-04T20:30:00Z,30.2513,-88.0778,2.306,6.82,1111122 
DISL,ioos:station:DISL:DISL:1,2017-04-04T21:00:00Z,30.2513,-88.0778,2.307,6.14,1111122 
DISL,ioos:station:DISL:DISL:1,2017-04-04T21:30:00Z,30.2513,-88.0778,2.341,6.31,1111122 
DISL,ioos:station:DISL:DISL:1,2017-04-04T22:00:00Z,30.2513,-88.0778,2.32,6.71,1111122 
DISL,ioos:station:DISL:DISL:1,2017-04-04T22:30:00Z,30.2513,-88.0778,2.321,7.15,1111122 
DISL,ioos:station:DISL:DISL:1,2017-04-04T23:00:00Z,30.2513,-88.0778,2.337,7.58,1111122 
DISL,ioos:station:DISL:DISL:1,2017-04-04T23:30:00Z,30.2513,-88.0778,2.339,8.3,1111122 
DISL,ioos:station:DISL:DISL:1,2017-04-05T00:00:00Z,30.2513,-88.0778,2.347,7.31,1111122 
DISL,ioos:station:DISL:DISL:1,2017-04-05T00:30:00Z,30.2513,-88.0778,2.319,8.41,1111122 
DISL,ioos:station:DISL:DISL:1,2017-04-05T01:00:00Z,30.2513,-88.0778,2.313,8.54,1111122 
DISL,ioos:station:DISL:DISL:1,2017-04-05T01:30:00Z,30.2513,-88.0778,2.315,8.34,1111122 
DISL,ioos:station:DISL:DISL:1,2017-04-05T02:00:00Z,30.2513,-88.0778,2.278,8.42,1111122 
DISL,ioos:station:DISL:DISL:1,2017-04-05T02:30:00Z,30.2513,-88.0778,2.266,6.82,1111122 
DISL,ioos:station:DISL:DISL:1,2017-04-05T03:00:00Z,30.2513,-88.0778,2.239,7.81,1111122 
DISL,ioos:station:DISL:DISL:1,2017-04-05T03:30:00Z,30.2513,-88.0778,2.218,8.11,1111122 
DISL,ioos:station:DISL:DISL:1,2017-04-05T04:00:00Z,30.2513,-88.0778,2.187,7.81,1111122 
DISL,ioos:station:DISL:DISL:1,2017-04-05T04:30:00Z,30.2513,-88.0778,2.154,7.53,1111122 
DISL,ioos:station:DISL:DISL:1,2017-04-05T05:30:00Z,30.2513,-88.0778,2.105,6.54,1111122 
DISL,ioos:station:DISL:DISL:1,2017-04-05T06:00:00Z,30.2513,-88.0778,2.072,6.27,1111122 
DISL,ioos:station:DISL:DISL:1,2017-04-05T06:30:00Z,30.2513,-88.0778,2.048,6.45,1111122 
DISL,ioos:station:DISL:DISL:1,2017-04-05T07:00:00Z,30.2513,-88.0778,2.022,6.33,1111122 
DISL,ioos:station:DISL:DISL:1,2017-04-05T07:30:00Z,30.2513,-88.0778,2.033,6.79,1111122 
DISL,ioos:station:DISL:DISL:1,2017-04-05T08:00:00Z,30.2513,-88.0778,2.035,6.94,1111122 
DISL,ioos:station:DISL:DISL:1,2017-04-05T08:30:00Z,30.2513,-88.0778,2.018,5.9,1111122 
DISL,ioos:station:DISL:DISL:1,2017-04-05T09:00:00Z,30.2513,-88.0778,2.008,6.42,1111122 
DISL,ioos:station:DISL:DISL:1,2017-04-05T09:30:00Z,30.2513,-88.0778,2.02,5.95,1111122 
DISL,ioos:station:DISL:DISL:1,2017-04-05T10:00:00Z,30.2513,-88.0778,2.02,6.86,1111122 
DISL,ioos:station:DISL:DISL:1,2017-04-05T10:30:00Z,30.2513,-88.0778,2.041,6.68,1111122 
DISL,ioos:station:DISL:DISL:1,2017-04-05T11:00:00Z,30.2513,-88.0778,2.046,6.78,1111122 
DISL,ioos:station:DISL:DISL:1,2017-04-05T11:30:00Z,30.2513,-88.0778,2.05,6.33,1111122 
DISL,ioos:station:DISL:DISL:1,2017-04-05T12:00:00Z,30.2513,-88.0778,2.065,5.77,1111122 
DISL,ioos:station:DISL:DISL:1,2017-04-05T12:30:00Z,30.2513,-88.0778,2.077,6.49,1111122 
DISL,ioos:station:DISL:DISL:1,2017-04-05T13:00:00Z,30.2513,-88.0778,2.082,6.81,1111122 
DISL,ioos:station:DISL:DISL:1,2017-04-05T13:30:00Z,30.2513,-88.0778,2.102,6.88,1111122 
DISL,ioos:station:DISL:DISL:1,2017-04-05T14:00:00Z,30.2513,-88.0778,2.106,6.47,1111122 
DISL,ioos:station:DISL:DISL:1,2017-04-05T14:30:00Z,30.2513,-88.0778,2.146,6.42,1111122 
DISL,ioos:station:DISL:DISL:1,2017-04-05T15:00:00Z,30.2513,-88.0778,2.171,5.46,1111122 
DISL,ioos:station:DISL:DISL:1,2017-04-05T15:30:00Z,30.2513,-88.0778,2.196,6.15,1111122 
DISL,ioos:station:DISL:DISL:1,2017-04-05T16:00:00Z,30.2513,-88.0778,2.244,6.9,1111122 
DISL,ioos:station:DISL:DISL:1,2017-04-05T16:30:00Z,30.2513,-88.0778,2.292,7.0,1111122 
DISL,ioos:station:DISL:DISL:1,2017-04-05T17:00:00Z,30.2513,-88.0778,2.295,7.24,1111122 
DISL,ioos:station:DISL:DISL:1,2017-04-05T17:30:00Z,30.2513,-88.0778,2.335,7.32,1111122 
DISL,ioos:station:DISL:DISL:1,2017-04-05T18:00:00Z,30.2513,-88.0778,2.336,7.19,1111122 
DISL,ioos:station:DISL:DISL:1,2017-04-05T18:30:00Z,30.2513,-88.0778,2.313,7.06,1111122 
DISL,ioos:station:DISL:DISL:1,2017-04-05T19:00:00Z,30.2513,-88.0778,2.345,7.42,1111122 
DISL,ioos:station:DISL:DISL:1,2017-04-05T19:30:00Z,30.2513,-88.0778,2.342,7.47,1111122 
DISL,ioos:station:DISL:DISL:1,2017-04-05T20:00:00Z,30.2513,-88.0778,2.344,6.65,1111122 
DISL,ioos:station:DISL:DISL:1,2017-04-05T20:30:00Z,30.2513,-88.0778,2.343,5.73,1111122 
DISL,ioos:station:DISL:DISL:1,2017-04-05T21:00:00Z,30.2513,-88.0778,2.353,4.63,1111122 
DISL,ioos:station:DISL:DISL:1,2017-04-05T21:30:00Z,30.2513,-88.0778,2.366,5.5,1111122 
DISL,ioos:station:DISL:DISL:1,2017-04-05T22:00:00Z,30.2513,-88.0778,2.348,5.75,1111122 
DISL,ioos:station:DISL:DISL:1,2017-04-05T22:30:00Z,30.2513,-88.0778,2.348,6.68,1111122 
DISL,ioos:station:DISL:DISL:1,2017-04-05T23:00:00Z,30.2513,-88.0778,2.36,7.34,1111122 
DISL,ioos:station:DISL:DISL:1,2017-04-05T23:30:00Z,30.2513,-88.0778,2.348,7.76,1111122 
DISL,ioos:station:DISL:DISL:1,2017-04-06T00:00:00Z,30.2513,-88.0778,2.338,7.22,1111122 
DISL,ioos:station:DISL:DISL:1,2017-04-06T00:30:00Z,30.2513,-88.0778,2.343,7.66,1111122 
DISL,ioos:station:DISL:DISL:1,2017-04-06T01:00:00Z,30.2513,-88.0778,2.345,7.85,1111122 
DISL,ioos:station:DISL:DISL:1,2017-04-06T01:30:00Z,30.2513,-88.0778,2.36,7.89,1111122 
DISL,ioos:station:DISL:DISL:1,2017-04-06T02:00:00Z,30.2513,-88.0778,2.318,7.65,1111122 
DISL,ioos:station:DISL:DISL:1,2017-04-06T02:30:00Z,30.2513,-88.0778,2.307,7.1,1111122 
DISL,ioos:station:DISL:DISL:1,2017-04-06T03:00:00Z,30.2513,-88.0778,2.257,7.57,1111122 
DISL,ioos:station:DISL:DISL:1,2017-04-06T03:30:00Z,30.2513,-88.0778,2.196,7.52,1111122 
DISL,ioos:station:DISL:DISL:1,2017-04-06T04:00:00Z,30.2513,-88.0778,2.225,7.38,1111122 
DISL,ioos:station:DISL:DISL:1,2017-04-06T04:30:00Z,30.2513,-88.0778,2.203,7.41,1111122 
DISL,ioos:station:DISL:DISL:1,2017-04-06T05:30:00Z,30.2513,-88.0778,2.083,7.16,1111122 
DISL,ioos:station:DISL:DISL:1,2017-04-06T06:00:00Z,30.2513,-88.0778,2.034,7.26,1111122 
DISL,ioos:station:DISL:DISL:1,2017-04-06T06:30:00Z,30.2513,-88.0778,2.02,7.45,1111122 
DISL,ioos:station:DISL:DISL:1,2017-04-06T07:00:00Z,30.2513,-88.0778,1.958,7.29,1111122 
DISL,ioos:station:DISL:DISL:1,2017-04-06T07:30:00Z,30.2513,-88.0778,1.937,7.51,1111122 
DISL,ioos:station:DISL:DISL:1,2017-04-06T08:00:00Z,30.2513,-88.0778,1.884,7.38,1111122 
DISL,ioos:station:DISL:DISL:1,2017-04-06T08:30:00Z,30.2513,-88.0778,1.857,7.51,1111122 
DISL,ioos:station:DISL:DISL:1,2017-04-06T09:00:00Z,30.2513,-88.0778,1.847,7.68,1111122 
DISL,ioos:station:DISL:DISL:1,2017-04-06T09:30:00Z,30.2513,-88.0778,1.818,7.52,1111122 
DISL,ioos:station:DISL:DISL:1,2017-04-06T10:00:00Z,30.2513,-88.0778,1.795,7.26,1111122 
DISL,ioos:station:DISL:DISL:1,2017-04-06T10:30:00Z,30.2513,-88.0778,1.776,7.09,1111122 
DISL,ioos:station:DISL:DISL:1,2017-04-06T11:00:00Z,30.2513,-88.0778,1.758,6.83,1111122 
DISL,ioos:station:DISL:DISL:1,2017-04-06T11:30:00Z,30.2513,-88.0778,1.755,7.06,1111122 
DISL,ioos:station:DISL:DISL:1,2017-04-06T12:00:00Z,30.2513,-88.0778,1.748,7.05,1111122 
DISL,ioos:station:DISL:DISL:1,2017-04-06T12:30:00Z,30.2513,-88.0778,1.781,7.26,1111122 
DISL,ioos:station:DISL:DISL:1,2017-04-06T13:00:00Z,30.2513,-88.0778,1.773,7.4,1111122 
DISL,ioos:station:DISL:DISL:1,2017-04-06T13:30:00Z,30.2513,-88.0778,1.8,7.45,1111122 
DISL,ioos:station:DISL:DISL:1,2017-04-06T14:00:00Z,30.2513,-88.0778,1.795,7.59,1111122 
DISL,ioos:station:DISL:DISL:1,2017-04-06T14:30:00Z,30.2513,-88.0778,1.822,7.78,1111122 
DISL,ioos:station:DISL:DISL:1,2017-04-06T15:00:00Z,30.2513,-88.0778,1.834,7.8,1111122 
DISL,ioos:station:DISL:DISL:1,2017-04-06T15:30:00Z,30.2513,-88.0778,1.847,7.89,1111122 
DISL,ioos:station:DISL:DISL:1,2017-04-06T16:00:00Z,30.2513,-88.0778,1.857,7.92,1111122 
DISL,ioos:station:DISL:DISL:1,2017-04-06T16:30:00Z,30.2513,-88.0778,1.9,7.98,1111122 
DISL,ioos:station:DISL:DISL:1,2017-04-06T17:00:00Z,30.2513,-88.0778,1.913,8.05,1111122 
DISL,ioos:station:DISL:DISL:1,2017-04-06T17:30:00Z,30.2513,-88.0778,1.89,8.1,1111122 
DISL,ioos:station:DISL:DISL:1,2017-04-06T18:00:00Z,30.2513,-88.0778,1.879,8.16,1111122 
DISL,ioos:station:DISL:DISL:1,2017-04-06T18:30:00Z,30.2513,-88.0778,1.877,8.23,1111122 
DISL,ioos:station:DISL:DISL:1,2017-04-06T19:00:00Z,30.2513,-88.0778,1.901,8.31,1111122 